EW4629 Weather Reports


time (UTC)temp
C
wind
direction
speed
KPH
gust
KPH
rain 1hr
cm
rain 24hr
cm
rain mn
cm
humidity
%
barometer
mb
20260507030020 18 233 0.0 0.0 0.00 0.08 0.08 1 1008.3
20260507024516 18 234 0.0 0.0 0.00 0.08 0.08 1 1008.7
20260507023011 18 234 0.0 0.0 0.00 0.08 0.08 1 1008.9
20260507021510 18 233 0.0 0.0 0.00 0.08 0.08 1 1009.1
20260507020002 18 235 0.0 0.0 0.00 0.08 0.08 1 1008.8
20260507014608 18 235 0.0 0.0 0.00 0.08 0.08 1 1009.0
20260507013053 19 234 0.0 0.0 0.00 0.08 0.08 1 1009.2
20260507011600 20 234 0.0 0.0 0.00 0.08 0.08 1 1009.0
20260507010045 20 234 0.0 0.0 0.00 0.08 0.08 1 1008.9
20260507004541 20 234 0.0 0.0 0.00 0.08 0.08 1 1008.8
20260507003035 21 231 0.0 0.0 0.00 0.08 0.08 1 1008.7
20260507001543 21 232 0.0 0.0 0.00 0.08 0.08 1 1008.5
20260507000027 21 239 0.0 0.0 0.00 0.08 0.08 1 1008.3
20260506234530 21 214 0.0 0.0 0.00 0.08 0.08 1 1008.3
20260506233018 21 237 0.0 0.0 0.00 0.08 0.08 1 1008.3
20260506231514 21 214 0.0 0.0 0.00 0.08 0.08 1 1008.2
20260506230011 21 204 0.0 0.0 0.00 0.08 0.08 1 1008.0
20260506224507 21 201 0.0 0.0 0.00 0.08 0.08 1 1008.2
20260506223001 21 278 0.0 0.0 0.00 0.08 0.08 1 1008.2
20260506221556 21 221 0.0 0.0 0.00 0.08 0.08 1 1008.1
20260506214549 21 243 0.0 0.0 0.00 0.08 0.08 1 1008.2
20260506213045 21 221 0.0 0.0 0.00 0.08 0.08 1 1008.0
20260506211540 21 235 0.0 0.0 0.00 0.08 0.08 1 1008.1
20260506210036 21 242 0.0 0.0 0.00 0.08 0.08 1 1007.9
20260506204534 21 237 0.0 0.0 0.00 0.08 0.08 1 1008.1
20260506203033 21 220 0.0 0.0 0.00 0.08 0.08 1 1008.3
20260506201523 21 241 0.0 0.0 0.00 0.08 0.08 1 1008.2
20260506200019 21 215 0.0 0.0 0.00 0.08 0.08 1 1008.4
20260506194513 21 190 0.0 0.0 0.00 0.08 0.08 1 1008.5
20260506193008 21 276 0.0 0.0 0.00 0.08 0.08 1 1009.0
20260506191504 21 207 0.0 0.0 0.00 0.08 0.08 1 1009.1
20260506190100 21 239 0.0 0.0 0.00 0.08 0.08 1 1008.5
20260506184601 21 228 0.0 0.0 0.00 0.08 0.08 1 1009.1
20260506183057 21 185 0.0 0.0 0.00 0.08 0.08 1 1009.4
20260506181547 20 249 0.0 0.0 0.00 0.08 0.08 1 1009.4
20260506180045 20 235 0.0 0.0 0.00 0.08 0.08 1 1009.4
20260506174538 19 359 0.0 0.0 0.00 0.08 0.08 1 1009.7
20260506173044 18 242 0.0 0.0 0.00 0.08 0.08 1 1009.9
20260506171532 18 191 0.0 0.0 0.03 0.08 0.08 1 1009.8
20260506170025 18 278 0.0 0.0 0.03 0.08 0.08 1 1010.1
20260506164521 18 359 0.0 0.0 0.05 0.08 0.08 1 1010.1
20260506163037 18 268 0.0 0.0 0.05 0.08 0.08 1 1010.2
20260506161515 18 201 0.0 0.0 0.03 0.05 0.05 1 1010.4
20260506160009 18 222 0.0 0.0 0.03 0.05 0.05 1 1010.8
20260506154512 18 194 0.0 0.0 0.03 0.03 0.03 1 1011.0
20260506153126 18 225 0.0 0.0 0.03 0.03 0.03 1 1011.2
20260506151556 19 359 0.0 0.0 0.03 0.03 0.03 1 1011.3
20260506150051 19 248 0.0 0.0 0.03 0.03 0.03 1 1011.2
20260506144546 20 228 0.0 6.4 0.00 0.00 0.00 1 1011.2
20260506143042 20 203 0.0 1.6 0.00 0.00 0.00 1 1011.1
20260506141539 20 189 0.0 6.4 0.00 0.00 0.00 6 1011.2
20260506140035 20 170 0.0 3.2 0.00 0.00 0.00 12 1011.1
20260506134529 20 242 0.0 6.4 0.00 0.00 0.00 16 1010.9
20260506133025 20 269 0.0 3.2 0.00 0.00 0.00 16 1011.0
20260506131525 20 199 0.0 3.2 0.00 0.00 0.00 16 1011.1
20260506130016 20 184 0.0 8.0 0.00 0.00 0.00 18 1011.0
20260506124511 20 258 0.0 3.2 0.00 0.00 0.00 21 1011.0
20260506123010 20 200 0.0 6.4 0.00 0.00 0.00 17 1011.3
20260506121503 20 231 0.0 6.4 0.00 0.00 0.00 14 1011.5
20260506120059 19 205 0.0 6.4 0.00 0.00 0.00 8 1011.6
20260506114554 19 262 0.0 3.2 0.00 0.00 0.00 5 1011.4
20260506113051 18 304 0.0 6.4 0.00 0.00 0.00 1 1011.2
20260506111546 18 213 0.0 6.4 0.00 0.00 0.00 1 1011.1
20260506110043 18 257 0.0 1.6 0.00 0.00 0.00 1 1011.0
20260506104537 18 177 0.0 8.0 0.00 0.00 0.00 1 1010.9
20260506103033 18 234 0.0 8.0 0.00 0.00 0.00 1 1010.9
20260506101638 18 173 0.0 3.2 0.00 0.00 0.00 1 1011.0
20260506100028 18 273 0.0 3.2 0.00 0.00 0.00 1 1011.1
20260506094520 18 223 0.0 9.7 0.00 0.00 0.00 1 1011.0
20260506093016 18 216 0.0 6.4 0.00 0.00 0.00 1 1010.8
20260506091511 18 194 0.0 6.4 0.00 0.00 0.00 1 1010.9
20260506090006 18 189 0.0 6.4 0.00 0.00 0.00 1 1010.9
20260506084503 18 289 0.0 3.2 0.00 0.00 0.00 1 1010.9
20260506083059 18 188 0.0 8.0 0.00 0.00 0.00 1 1010.8
20260506081609 18 301 0.0 6.4 0.00 0.00 0.00 1 1010.9
20260506073041 19 250 0.0 9.7 0.00 0.00 0.00 1 1011.3
20260506071538 19 174 0.0 3.2 0.00 0.00 0.00 1 1011.2
20260506061519 20 226 0.0 1.6 0.00 0.00 0.00 1 1011.4
20260506050115 20 173 0.0 1.6 0.00 0.00 0.00 1 1011.9
20260506044553 20 208 0.0 1.6 0.00 0.00 0.00 1 1012.0
20260506043050 20 228 0.0 1.6 0.00 0.00 0.00 1 1011.9
20260506041557 20 160 0.0 6.4 0.00 0.00 0.00 1 1011.9
20260506040040 21 249 0.0 3.2 0.00 0.00 0.00 1 1011.9
20260506034548 21 258 0.0 8.0 0.00 0.00 0.00 1 1011.8
20260506033031 21 247 0.0 6.4 0.00 0.00 0.00 1 1011.8
20260506031527 21 199 0.0 6.4 0.00 0.00 0.00 1 1011.8